Lancaster, CA

4:59 AM PDT on June 22, 2018 (GMT -0700)
Gen Fox

Weather History for KWJF - October, 2017

Change the Weather History Date:

Saturday, October 7, 2017

  Actual Average Record
Temperature  
Mean Temperature 66 °F 66 °F  
Max Temperature 91 °F 83 °F 97 °F (1996)
Min Temperature 41 °F 49 °F 36 °F (2007)
Degree Days  
Heating Degree Days 0    
Month to date heating degree days 20  
Since 1 July heating degree days 40  
Cooling Degree Days 1    
Month to date cooling degree days 10  
Year to date cooling degree days 2181  
Growing Degree Days 17 (Base 50)    
Moisture  
Dew Point 15 °F    
Average Humidity 19    
Maximum Humidity 31    
Minimum Humidity 6    
Precipitation  
Precipitation 0.00 in 0.01 in 0.95 in (1974)
Month to date precipitation 0.00 0.06  
Year to date precipitation 4.62 5.31  
Snow  
Snow 0.00 in - 0.00 in ()
Month to date snowfall 0.0  
Since 1 July snowfall 0.0  
Since 1 September snowfall 0.0  
Snow Depth 0.00 in    
Sea Level Pressure  
Sea Level Pressure 29.89 in    
Wind  
Wind Speed 7 mph (WSW)    
Max Wind Speed 25 mph    
Max Gust Speed 29 mph    
Visibility 10 miles    
Events      
T = Trace of Precipitation, MM = Missing Value Source: NWS Daily Summary

Daily Weather History Graph

Daily Weather History Graph

Search for Another Location

Airport or City:

Astronomy

Oct. 07, 2017 Rise Set
Actual Time 6:52 AM PDT 6:28 PM PDT
Civil Twilight 6:27 AM PDT 6:53 PM PDT
Nautical Twilight 5:57 AM PDT 7:22 PM PDT
Astronomical Twilight 5:28 AM PDT 7:51 PM PDT
Moon 8:13 PM PDT (10/7) 8:48 AM PDT (10/7)
Length of Visible Light 12h 26m
Length of Day
11h 35m
Waning Gibbous, 95% of the Moon is Illuminated
Oct 7
Waning Gibbous
Oct 12
Last Quarter
Oct 19
New
Oct 27
First Quarter
Nov 3
Full

Hourly Weather History & Observations

Time (PDT) Temp. Windchill Dew Point Humidity Pressure Visibility Wind Dir Wind Speed Gust Speed Precip Events Conditions
12:56 AM 51.1 °F - 15.1 °F 24% 30.01 in 10.0 mi West 4.6 mph - N/A   Clear
1:56 AM 50.0 °F - 15.1 °F 25% 30.01 in 10.0 mi West 5.8 mph - N/A   Clear
2:56 AM 48.0 °F - 15.1 °F 27% 29.99 in 10.0 mi West 4.6 mph - N/A   Clear
3:56 AM 43.0 °F - 14.0 °F 31% 29.99 in 10.0 mi Calm Calm - N/A   Clear
4:56 AM 44.1 °F 40.8 °F 15.1 °F 31% 29.98 in 10.0 mi West 5.8 mph - N/A   Clear
5:56 AM 45.0 °F 41.8 °F 15.1 °F 30% 29.99 in 10.0 mi West 5.8 mph - N/A   Clear
6:56 AM 45.0 °F - 16.0 °F 31% 29.99 in 10.0 mi Calm Calm - N/A   Clear
7:56 AM 48.0 °F - 16.0 °F 28% 29.99 in 10.0 mi NW 3.5 mph - N/A   Clear
8:56 AM 55.9 °F - 19.9 °F 25% 30.00 in 10.0 mi Calm Calm - N/A   Clear
9:56 AM 68.0 °F - 18.0 °F 15% 29.99 in 10.0 mi Calm Calm - N/A   Clear
10:56 AM 77.0 °F - 16.0 °F 10% 29.96 in 10.0 mi Calm Calm - N/A   Clear
11:56 AM 80.1 °F - 15.1 °F 9% 29.94 in 10.0 mi WSW 3.5 mph - N/A   Clear
12:56 PM 84.9 °F - 15.1 °F 7% 29.90 in 10.0 mi Calm Calm - N/A   Clear
1:56 PM 86.0 °F - 15.1 °F 7% 29.86 in 10.0 mi Calm Calm - N/A   Clear
2:56 PM 88.0 °F - 15.1 °F 7% 29.83 in 10.0 mi SSE 3.5 mph - N/A   Clear
3:56 PM 90.0 °F - 15.1 °F 6% 29.81 in 10.0 mi Variable 3.5 mph - N/A   Clear
4:56 PM 91.0 °F - 15.1 °F 6% 29.79 in 10.0 mi South 4.6 mph - N/A   Clear
5:24 PM 88.0 °F - 12.9 °F 6% 29.82 in 10.0 mi West 18.4 mph - N/A   Clear
5:56 PM 84.9 °F - 12.9 °F 7% 29.79 in 10.0 mi West 21.9 mph - N/A   Clear
6:56 PM 79.0 °F - 15.1 °F 9% 29.81 in 10.0 mi WSW 16.1 mph - N/A   Clear
7:56 PM 77.0 °F - 16.0 °F 10% 29.80 in 10.0 mi WSW 19.6 mph - N/A   Clear
8:56 PM 75.0 °F - 14.0 °F 10% 29.79 in 10.0 mi WSW 18.4 mph - N/A   Clear
9:56 PM 75.0 °F - 14.0 °F 10% 29.78 in 10.0 mi West 12.7 mph - N/A   Clear
10:56 PM 73.0 °F - 10.9 °F 9% 29.76 in 10.0 mi West 15.0 mph - N/A   Clear
11:56 PM 71.1 °F - 12.0 °F 10% 29.75 in 10.0 mi WSW 12.7 mph - N/A   Clear